Change the Weather History Date:

Monday, March 18, 2013

  Actual Average Record
Temperature  
Mean Temperature 56 °F -  
Max Temperature 68 °F 60 °F 84 °F (2012)
Min Temperature 41 °F 43 °F 28 °F (2014)
Degree Days  
Heating Degree Days 9    
Growing Degree Days 6 (Base 50)    
Moisture  
Dew Point 49 °F    
Average Humidity 92    
Maximum Humidity 100    
Minimum Humidity 64    
Precipitation  
Precipitation 0.00 in - - ()
Sea Level Pressure  
Sea Level Pressure 29.79 in    
Wind  
Wind Speed 6 mph (NW)    
Max Wind Speed 15 mph    
Max Gust Speed -    
Visibility 7 miles    
Events Rain    
Averages and records for this station are not official NWS values.
T = Trace of Precipitation, MM = Missing Value Source: NWS Daily Summary

Daily Weather History Graph

Daily Weather History Graph

Search for Another Location

Airport or City:

Trip Planner

Search our weather history database for the weather conditions in past years. The results will help you decide how hot, cold, wet, or windy it might be!

Date:

Astronomy

Mar. 18, 2013 Rise Set
Actual Time 7:05 AM CDT 7:09 PM CDT
Civil Twilight 6:40 AM CDT 7:35 PM CDT
Nautical Twilight 6:10 AM CDT 8:04 PM CDT
Astronomical Twilight 5:40 AM CDT 8:34 PM CDT
Moon 11:17 AM CDT (3/18) 12:57 AM CDT (3/18)
Length of Visible Light 12h 54m
Length of Day
12h 04m
Waxing Crescent, 41% of the Moon is Illuminated
Mar 18
Waxing Crescent
Mar 19
First Quarter
Mar 27
Full
Apr 2
Last Quarter
Apr 10
New

Hourly Weather History & Observations

Time (CDT) Temp. Windchill Dew Point Humidity Pressure Visibility Wind Dir Wind Speed Gust Speed Precip Events Conditions
12:55 AM 68.0 °F - 55.4 °F 64% 29.68 in 10.0 mi South 10.4 mph - N/A   Mostly Cloudy
1:55 AM 68.0 °F - 57.2 °F 68% 29.68 in 10.0 mi SSW 4.6 mph - N/A   Overcast
2:55 AM 51.8 °F - 50.0 °F 94% 29.70 in 6.0 mi NW 9.2 mph - N/A   Overcast
3:15 AM 51.8 °F - 50.0 °F 94% 29.70 in 6.0 mi NW 6.9 mph - N/A   Overcast
3:35 AM 50.0 °F - 48.2 °F 94% 29.70 in 6.0 mi WNW 3.5 mph - N/A   Overcast
3:55 AM 50.0 °F - 48.2 °F 94% 29.70 in 6.0 mi NW 4.6 mph - N/A   Overcast
4:15 AM 50.0 °F - 48.2 °F 94% 29.69 in 6.0 mi Calm Calm - N/A   Overcast
4:35 AM 50.0 °F - 48.2 °F 94% 29.70 in 5.0 mi Calm Calm - N/A   Overcast
4:55 AM 50.0 °F - 48.2 °F 94% 29.69 in 3.0 mi Calm Calm - N/A   Overcast
5:15 AM 48.2 °F - 48.2 °F 100% 29.69 in 3.0 mi Calm Calm - N/A   Overcast
5:35 AM 50.0 °F - 50.0 °F 100% 29.68 in 3.0 mi Calm Calm - N/A   Overcast
5:55 AM 48.2 °F - 48.2 °F 100% 29.72 in 1.5 mi WNW 12.7 mph - N/A   Overcast
6:55 AM 48.2 °F - 48.2 °F 100% 29.72 in 5.0 mi Calm Calm - N/A   Overcast
7:55 AM 48.2 °F - 48.2 °F 100% 29.76 in 2.5 mi Calm Calm - N/A   Overcast
8:55 AM 51.8 °F - 50.0 °F 94% 29.78 in 6.0 mi WSW 5.8 mph - N/A   Overcast
9:55 AM 51.8 °F - 50.0 °F 94% 29.79 in 6.0 mi SSW 4.6 mph - N/A Rain Light Rain
10:55 AM 51.8 °F - 51.8 °F 100% 29.80 in 6.0 mi WNW 5.8 mph - N/A Rain Light Rain
11:55 AM 51.8 °F - 48.2 °F 88% 29.86 in 6.0 mi WNW 10.4 mph - N/A Rain Light Rain
12:55 PM 50.0 °F - 50.0 °F 100% 29.75 in 6.0 mi East 4.6 mph - N/A Rain Light Rain
1:55 PM 53.6 °F - 51.8 °F 94% 29.77 in 6.0 mi North 5.8 mph - N/A   Overcast
2:55 PM 53.6 °F - 50.0 °F 88% 29.79 in 10.0 mi NW 10.4 mph - N/A   Overcast
3:55 PM 51.8 °F - 46.4 °F 82% 29.83 in 10.0 mi NW 15.0 mph - N/A   Overcast
4:55 PM 53.6 °F - 48.2 °F 82% 29.85 in 10.0 mi NNW 4.6 mph - N/A   Overcast
5:55 PM 53.6 °F - 46.4 °F 77% 29.87 in 10.0 mi NNW 9.2 mph - N/A   Mostly Cloudy
7:55 PM 48.2 °F - 44.6 °F 87% 29.93 in 10.0 mi North 4.6 mph - N/A   Mostly Cloudy
8:55 PM 46.4 °F 44.3 °F 42.8 °F 87% 29.96 in 10.0 mi NW 4.6 mph - N/A   Scattered Clouds
9:55 PM 46.4 °F - 44.6 °F 93% 29.99 in 10.0 mi Calm Calm - N/A   Partly Cloudy
10:55 PM 44.6 °F - 44.6 °F 100% 30.02 in 6.0 mi Calm Calm - N/A   Partly Cloudy
11:55 PM 41.0 °F - 41.0 °F 100% 30.05 in 10.0 mi Calm Calm - N/A   Clear